TimeEST,TemperatureF,Dew PointF,Humidity,Sea Level PressureIn,VisibilityMPH,Wind Direction,Wind SpeedMPH,Gust SpeedMPH,PrecipitationIn,Events,Conditions,WindDirDegrees,DateUTC
12:15 AM,28.4,19.4,69,30.47,10.0,East,3.5,-,N/A,,Overcast,90,2013-02-08 05:15:00
12:52 AM,28.9,19.9,69,30.46,10.0,ENE,5.8,-,N/A,,Overcast,70,2013-02-08 05:52:00
1:52 AM,30.0,21.0,69,30.43,10.0,East,8.1,-,N/A,,Overcast,90,2013-02-08 06:52:00
2:00 AM,30.2,21.2,69,30.42,10.0,East,8.1,-,N/A,,Overcast,90,2013-02-08 07:00:00
2:52 AM,30.0,21.9,72,30.40,10.0,East,9.2,-,N/A,,Overcast,90,2013-02-08 07:52:00
3:52 AM,30.9,21.9,69,30.38,10.0,East,11.5,-,N/A,,Overcast,100,2013-02-08 08:52:00
4:52 AM,30.9,21.9,69,30.37,10.0,East,12.7,20.7,N/A,,Overcast,100,2013-02-08 09:52:00
5:52 AM,30.9,23.0,72,30.34,10.0,East,18.4,25.3,N/A,,Overcast,90,2013-02-08 10:52:00
6:52 AM,32.0,23.0,69,30.33,10.0,East,11.5,21.9,N/A,,Overcast,90,2013-02-08 11:52:00
7:52 AM,32.0,23.0,69,30.31,10.0,East,10.4,20.7,N/A,,Overcast,90,2013-02-08 12:52:00
8:52 AM,32.0,25.0,75,30.28,6.0,East,11.5,23.0,0.00,,Haze,80,2013-02-08 13:52:00
9:28 AM,33.8,26.6,75,30.26,1.8,East,15.0,26.5,0.00,Snow,Light Snow,80,2013-02-08 14:28:00
9:52 AM,33.1,27.0,78,30.26,1.8,East,13.8,23.0,0.00,Snow,Light Snow,90,2013-02-08 14:52:00
10:11 AM,33.8,26.6,75,30.24,2.0,East,11.5,23.0,0.00,Snow,Light Snow,80,2013-02-08 15:11:00
10:21 AM,33.8,28.4,81,30.23,1.8,East,13.8,20.7,0.00,Snow,Light Snow,80,2013-02-08 15:21:00
10:32 AM,33.8,28.4,81,30.22,2.0,East,13.8,-,0.00,Snow,Light Snow,90,2013-02-08 15:32:00
10:52 AM,33.1,28.9,85,30.22,2.0,East,13.8,19.6,0.00,Snow,Light Snow,80,2013-02-08 15:52:00
11:14 AM,33.8,28.4,81,30.18,1.8,East,15.0,25.3,0.00,Snow,Light Snow,90,2013-02-08 16:14:00
11:41 AM,33.8,30.2,87,30.15,1.2,East,13.8,20.7,0.00,Snow,Light Snow,80,2013-02-08 16:41:00
11:52 AM,33.1,30.0,89,30.15,1.0,East,12.7,28.8,0.00,Snow,Light Snow,80,2013-02-08 16:52:00
12:27 PM,33.8,30.2,87,30.11,0.8,East,19.6,27.6,0.01,Snow,Light Snow,80,2013-02-08 17:27:00
12:52 PM,33.1,30.0,89,30.10,0.8,East,15.0,27.6,0.02,Snow,Light Snow,90,2013-02-08 17:52:00
1:52 PM,33.1,30.0,89,30.04,0.5,East,15.0,26.5,0.04,Fog-Snow,Snow,80,2013-02-08 18:52:00
2:52 PM,33.1,30.0,89,29.99,0.5,East,18.4,26.5,0.03,Fog-Snow,Snow,80,2013-02-08 19:52:00
3:52 PM,34.0,30.9,89,29.91,0.8,ENE,20.7,32.2,0.04,Snow,Light Snow,70,2013-02-08 20:52:00
4:32 PM,33.8,30.2,87,29.87,0.2,ENE,20.7,36.8,0.02,Fog-Snow,Snow,60,2013-02-08 21:32:00
4:52 PM,33.1,30.9,92,29.86,0.2,ENE,21.9,33.4,0.03,Fog-Snow,Snow,60,2013-02-08 21:52:00
5:04 PM,33.8,30.2,87,29.84,0.5,ENE,19.6,35.7,0.01,Fog-Snow,Snow,60,2013-02-08 22:04:00
5:35 PM,33.8,30.2,87,29.82,0.5,ENE,20.7,35.7,0.05,Fog-Snow,Snow,60,2013-02-08 22:35:00
5:52 PM,33.1,30.9,92,29.81,0.5,ENE,25.3,39.1,0.08,Fog-Snow,Snow,60,2013-02-08 22:52:00
6:52 PM,33.1,30.9,92,29.73,0.5,NE,28.8,46.0,0.05,Fog-Snow,Snow,50,2013-02-08 23:52:00
7:40 PM,33.8,30.2,87,29.67,0.2,NE,32.2,48.3,0.05,Fog-Snow,Heavy Snow,50,2013-02-09 00:40:00
7:52 PM,33.1,30.9,92,29.67,0.5,NE,35.7,48.3,0.05,Fog-Snow,Snow,40,2013-02-09 00:52:00
8:02 PM,33.8,30.2,87,29.65,-9999.0,North,-9999.0,-,0.00,,Unknown,0,2013-02-09 01:02:00
9:52 PM,-9999,-9999,N/A,29.54,-9999.0,North,-9999.0,-,N/A,,Unknown,0,2013-02-09 02:52:00
10:52 PM,-9999,-9999,N/A,29.46,-9999.0,North,-9999.0,-,N/A,,Unknown,0,2013-02-09 03:52:00
11:52 PM,-9999,-9999,N/A,29.41,-9999.0,North,-9999.0,-,N/A,,Unknown,0,2013-02-09 04:52:00